Grafton, ND

12:52 AM CST on February 20, 2017 (GMT -0600)
Grafton Municipal

Weather History for KGAF - April, 2013

Change the Weather History Date:

Friday, April 12, 2013

  Actual Average Record
Temperature  
Mean Temperature 29 °F -  
Max Temperature 32 °F 52 °F 82 °F (1968)
Min Temperature 26 °F 31 °F 2 °F (1950)
Degree Days  
Heating Degree Days 36    
Moisture  
Dew Point 27 °F    
Average Humidity 93    
Maximum Humidity 100    
Minimum Humidity 80    
Precipitation  
Precipitation 0.00 in - - ()
Sea Level Pressure  
Sea Level Pressure 29.92 in    
Wind  
Wind Speed 12 mph (NNE)    
Max Wind Speed 16 mph    
Max Gust Speed 21 mph    
Visibility 6 miles    
Events Rain , Snow    
Averages and records for this station are not official NWS values.
T = Trace of Precipitation, MM = Missing Value Source: NWS Daily Summary

Daily Weather History Graph

Daily Weather History Graph

Search for Another Location

Airport or City:

Trip Planner

Search our weather history database for the weather conditions in past years. The results will help you decide how hot, cold, wet, or windy it might be!

Date:

Astronomy

Apr. 12, 2013 Rise Set
Actual Time 6:44 AM CDT 8:16 PM CDT
Civil Twilight 6:12 AM CDT 8:49 PM CDT
Nautical Twilight 5:32 AM CDT 9:29 PM CDT
Astronomical Twilight 4:49 AM CDT 10:12 PM CDT
Moon 7:45 AM CDT (4/12) 11:00 PM CDT (4/12)
Length of Visible Light 14h 37m
Length of Day
13h 31m
Waxing Crescent, 5% of the Moon is Illuminated
Apr 12
Waxing Crescent
Apr 18
First Quarter
Apr 25
Full
May 2
Last Quarter
May 9
New

Hourly Weather History & Observations

Time (CDT) Temp. Windchill Dew Point Humidity Pressure Visibility Wind Dir Wind Speed Gust Speed Precip Events Conditions
12:15 AM 28.4 °F 17.5 °F 26.6 °F 93% 29.94 in 10.0 mi ENE 13.8 mph - N/A Rain Light Freezing Rain
12:35 AM 28.4 °F 17.5 °F 26.6 °F 93% 29.94 in 10.0 mi ENE 13.8 mph - N/A   Overcast
12:55 AM 28.4 °F 19.7 °F 26.6 °F 93% 29.94 in 10.0 mi NE 9.2 mph - N/A   Overcast
1:15 AM 28.4 °F 18.5 °F 26.6 °F 93% 29.94 in 10.0 mi NE 11.5 mph - N/A Snow Light Snow
1:35 AM 28.4 °F 19.1 °F 26.6 °F 93% 29.94 in 10.0 mi ENE 10.4 mph - N/A Snow Light Snow
1:55 AM 28.4 °F 17.5 °F 26.6 °F 93% 29.94 in 10.0 mi ENE 13.8 mph - N/A Snow Light Snow
2:15 AM 28.4 °F 18.5 °F 26.6 °F 93% 29.93 in 10.0 mi ENE 11.5 mph - N/A   Overcast
2:35 AM 28.4 °F 16.6 °F 26.6 °F 93% 29.93 in 9.0 mi ENE 16.1 mph - N/A   Overcast
2:55 AM 28.4 °F 17.0 °F 26.6 °F 93% 29.92 in 10.0 mi ENE 15.0 mph - N/A   Overcast
3:15 AM 28.4 °F 17.0 °F 26.6 °F 93% 29.92 in 10.0 mi ENE 15.0 mph - N/A   Overcast
3:35 AM 28.4 °F 17.0 °F 26.6 °F 93% 29.91 in 4.0 mi ENE 15.0 mph - N/A Snow Light Snow
3:55 AM 28.4 °F 18.0 °F 26.6 °F 93% 29.92 in 6.0 mi NE 12.7 mph 19.6 mph N/A Snow Light Snow
4:15 AM 28.4 °F 18.5 °F 26.6 °F 93% 29.92 in 10.0 mi ENE 11.5 mph 19.6 mph N/A   Mostly Cloudy
4:55 AM 28.4 °F 17.5 °F 26.6 °F 93% 29.92 in 6.0 mi NE 13.8 mph - N/A Snow Light Snow
5:15 AM 28.4 °F 17.0 °F 26.6 °F 93% 29.92 in 10.0 mi NE 15.0 mph 20.7 mph N/A   Overcast
5:35 AM 28.4 °F 17.5 °F 24.8 °F 86% 29.92 in 10.0 mi ENE 13.8 mph - N/A   Mostly Cloudy
5:55 AM 26.6 °F 15.2 °F 26.6 °F 100% 29.91 in 10.0 mi NE 13.8 mph - N/A   Overcast
6:15 AM 26.6 °F 14.7 °F 26.6 °F 100% 29.91 in 10.0 mi NE 15.0 mph - N/A   Overcast
6:35 AM 26.6 °F 15.7 °F 26.6 °F 100% 29.92 in 2.0 mi ENE 12.7 mph - N/A Snow Light Snow
6:55 AM 26.6 °F 16.2 °F 26.6 °F 100% 29.92 in 1.8 mi ENE 11.5 mph - N/A Snow Light Snow
7:15 AM 26.6 °F 16.2 °F 26.6 °F 100% 29.92 in 1.8 mi NE 11.5 mph - N/A Snow Light Snow
7:35 AM 26.6 °F 15.7 °F 26.6 °F 100% 29.92 in 2.0 mi NE 12.7 mph - N/A Snow Light Snow
7:55 AM 28.4 °F 18.5 °F 28.4 °F 100% 29.93 in 1.2 mi NE 11.5 mph - N/A Snow Light Snow
8:15 AM 28.4 °F 20.4 °F 28.4 °F 100% 29.93 in 2.0 mi NNE 8.1 mph - N/A Snow Light Snow
8:35 AM 28.4 °F 19.7 °F 28.4 °F 100% 29.93 in 3.0 mi NNE 9.2 mph - N/A Snow Light Snow
8:55 AM 28.4 °F 19.7 °F 28.4 °F 100% 29.93 in 5.0 mi NNE 9.2 mph - N/A Snow Light Snow
9:15 AM 28.4 °F 19.1 °F 28.4 °F 100% 29.93 in 2.0 mi NNE 10.4 mph - N/A Snow Light Snow
9:55 AM 28.4 °F 19.1 °F 28.4 °F 100% 29.93 in 1.5 mi North 10.4 mph - N/A Snow Light Snow
10:15 AM 28.4 °F 19.1 °F 28.4 °F 100% 29.93 in 1.2 mi NNE 10.4 mph - N/A Snow Light Snow
10:35 AM 28.4 °F 19.1 °F 28.4 °F 100% 29.93 in 1.8 mi North 10.4 mph - N/A Snow Light Snow
10:55 AM 28.4 °F 19.7 °F 28.4 °F 100% 29.93 in 1.8 mi North 9.2 mph - N/A Snow Light Snow
11:15 AM 28.4 °F 19.1 °F 28.4 °F 100% 29.93 in 1.2 mi North 10.4 mph - N/A Snow Light Snow
11:35 AM 30.2 °F 20.8 °F 28.4 °F 93% 29.93 in 2.5 mi North 11.5 mph - N/A Snow Light Snow
11:55 AM 30.2 °F 20.2 °F 28.4 °F 93% 29.93 in 1.5 mi NNE 12.7 mph - N/A Snow Light Snow
12:15 PM 28.4 °F 18.5 °F 28.4 °F 100% 29.94 in 2.0 mi North 11.5 mph - N/A Snow Light Snow
12:35 PM 28.4 °F 18.0 °F 28.4 °F 100% 29.93 in 1.5 mi North 12.7 mph - N/A Snow Light Snow
12:55 PM 28.4 °F 17.5 °F 26.6 °F 93% 29.93 in 0.8 mi NNE 13.8 mph - N/A Snow Light Snow
1:15 PM 28.4 °F 19.7 °F 26.6 °F 93% 29.92 in 3.0 mi NNE 9.2 mph - N/A Snow Light Snow
1:35 PM 30.2 °F 22.6 °F 26.6 °F 86% 29.92 in 10.0 mi North 8.1 mph - N/A Snow Light Snow
1:55 PM 30.2 °F 23.4 °F 26.6 °F 86% 29.92 in 5.0 mi NNE 6.9 mph - N/A Snow Light Snow
2:15 PM 32.0 °F 25.6 °F 26.6 °F 80% 29.92 in 10.0 mi NNW 6.9 mph - N/A   Scattered Clouds
2:35 PM 32.0 °F 24.2 °F 26.6 °F 80% 29.92 in 10.0 mi NNW 9.2 mph - N/A   Clear
2:55 PM 32.0 °F 24.2 °F 26.6 °F 80% 29.91 in 10.0 mi NNW 9.2 mph - N/A   Clear
3:15 PM 32.0 °F 24.8 °F 26.6 °F 80% 29.91 in 10.0 mi North 8.1 mph - N/A   Clear
3:35 PM 32.0 °F 22.1 °F 26.6 °F 80% 29.91 in 10.0 mi North 13.8 mph - N/A   Clear
3:55 PM 32.0 °F 22.5 °F 28.4 °F 87% 29.91 in 10.0 mi North 12.7 mph - N/A   Scattered Clouds
4:15 PM 32.0 °F 23.0 °F 28.4 °F 87% 29.90 in 10.0 mi North 11.5 mph - N/A   Scattered Clouds
4:35 PM 32.0 °F 23.0 °F 28.4 °F 87% 29.90 in 8.0 mi North 11.5 mph - N/A   Scattered Clouds
4:55 PM 32.0 °F 23.6 °F 28.4 °F 87% 29.90 in 2.5 mi North 10.4 mph - N/A Snow Light Snow
5:15 PM 32.0 °F 22.1 °F 26.6 °F 80% 29.90 in 5.0 mi North 13.8 mph - N/A Rain Light Rain
5:35 PM 32.0 °F 23.0 °F 28.4 °F 87% 29.90 in 3.0 mi North 11.5 mph - N/A Snow Light Snow
5:55 PM 32.0 °F 24.2 °F 26.6 °F 80% 29.91 in 7.0 mi North 9.2 mph - N/A Rain Light Rain
6:15 PM 32.0 °F 23.6 °F 26.6 °F 80% 29.91 in 9.0 mi North 10.4 mph - N/A   Scattered Clouds
6:35 PM 32.0 °F 22.1 °F 26.6 °F 80% 29.91 in 10.0 mi North 13.8 mph - N/A   Mostly Cloudy
6:55 PM 30.2 °F 19.8 °F 26.6 °F 86% 29.91 in 5.0 mi North 13.8 mph - N/A Rain Light Freezing Rain
7:15 PM 28.4 °F 19.7 °F 26.6 °F 93% 29.91 in 8.0 mi North 9.2 mph - N/A Rain Light Freezing Rain
7:35 PM 28.4 °F 19.1 °F 26.6 °F 93% 29.91 in 9.0 mi North 10.4 mph - N/A Rain Light Freezing Rain
7:55 PM 28.4 °F 18.5 °F 26.6 °F 93% 29.91 in 7.0 mi NNW 11.5 mph - N/A Snow Light Snow
8:15 PM 28.4 °F 19.1 °F 26.6 °F 93% 29.91 in 5.0 mi NNW 10.4 mph - N/A Snow Light Snow
8:35 PM 28.4 °F 19.1 °F 26.6 °F 93% 29.91 in 5.0 mi NNW 10.4 mph - N/A Snow Light Snow
8:55 PM 28.4 °F 18.5 °F 26.6 °F 93% 29.92 in 9.0 mi NNW 11.5 mph - N/A Snow Light Snow
9:15 PM 28.4 °F 19.7 °F 26.6 °F 93% 29.92 in 4.0 mi NNW 9.2 mph - N/A Snow Light Snow
9:35 PM 28.4 °F 20.4 °F 26.6 °F 93% 29.93 in 2.5 mi NNW 8.1 mph - N/A Snow Light Snow
9:55 PM 28.4 °F 19.7 °F 26.6 °F 93% 29.93 in 1.8 mi NNW 9.2 mph - N/A Snow Light Snow
10:15 PM 28.4 °F 20.4 °F 28.4 °F 100% 29.93 in 3.0 mi NNW 8.1 mph - N/A Snow Light Snow
10:35 PM 28.4 °F 20.4 °F 28.4 °F 100% 29.93 in 2.5 mi North 8.1 mph - N/A Snow Light Snow
10:55 PM 28.4 °F 20.4 °F 28.4 °F 100% 29.92 in 4.0 mi NNW 8.1 mph - N/A Snow Light Snow
11:15 PM 28.4 °F 19.7 °F 28.4 °F 100% 29.92 in 3.0 mi North 9.2 mph - N/A Snow Light Snow
11:35 PM 28.4 °F 20.4 °F 28.4 °F 100% 29.92 in 2.5 mi North 8.1 mph - N/A Snow Light Snow
11:55 PM 28.4 °F 21.2 °F 28.4 °F 100% 29.92 in 4.0 mi North 6.9 mph - N/A Snow Light Snow